This is the latest recevied weather packets stored in our database for station/object IN3XSV. If no packets are shown the sender has not sent any weather packets the latest 10 day(s).
| Time | Temp. | Humidity | Pressure | Rain* | Wind** | Luminosity | Snow |
|---|---|---|---|---|---|---|---|
| 1778263713 | 17.78° C | 58% | 1008.1 hPa | 0 mm | - | - | - |
| 1778263413 | 17.78° C | 58% | 1008 hPa | 0 mm | - | - | - |
| 1778263113 | 17.78° C | 58% | 1007.9 hPa | 0 mm | - | - | - |
| 1778262813 | 17.78° C | 57% | 1007.9 hPa | 0 mm | - | - | - |
| 1778262513 | 18.33° C | 57% | 1007.9 hPa | 0 mm | - | - | - |
| 1778262213 | 18.33° C | 56% | 1007.8 hPa | 0 mm | - | - | - |
| 1778261913 | 18.89° C | 56% | 1007.9 hPa | 0 mm | - | - | - |
| 1778261613 | 18.89° C | 55% | 1007.8 hPa | 0 mm | - | - | - |
| 1778261313 | 18.89° C | 55% | 1007.9 hPa | 0 mm | - | - | - |
| 1778261013 | 18.89° C | 54% | 1007.7 hPa | 0 mm | - | - | - |
| 1778260713 | 19.44° C | 54% | 1007.8 hPa | 0 mm | - | - | - |
| 1778260413 | 19.44° C | 54% | 1007.7 hPa | 0 mm | - | - | - |
| 1778260113 | 19.44° C | 54% | 1007.7 hPa | 0 mm | - | - | - |
| 1778259813 | 19.44° C | 53% | 1007.6 hPa | 0 mm | - | - | - |
| 1778259513 | 19.44° C | 53% | 1007.7 hPa | 0 mm | - | - | - |
| 1778259213 | 19.44° C | 53% | 1007.6 hPa | 0 mm | - | - | - |
| 1778258913 | 19.44° C | 53% | 1007.6 hPa | 0 mm | - | - | - |
| 1778258613 | 19.44° C | 52% | 1007.6 hPa | 0 mm | - | - | - |
| 1778258313 | 19.44° C | 52% | 1007.6 hPa | 0 mm | - | - | - |
| 1778258013 | 19.44° C | 52% | 1007.5 hPa | 0 mm | - | - | - |
| 1778257713 | 19.44° C | 52% | 1007.5 hPa | 0 mm | - | - | - |
| 1778257413 | 19.44° C | 52% | 1007.4 hPa | 0 mm | - | - | - |
| 1778257113 | 19.44° C | 52% | 1007.4 hPa | 0 mm | - | - | - |
| 1778256813 | 20° C | 52% | 1007.5 hPa | 0 mm | - | - | - |
| 1778256514 | 19.44° C | 52% | 1007.5 hPa | 0 mm | - | - | - |
* Rain latest hour (hover to see other rain measurements)
** Current wind speed in m/s (hover to see current wind gust speed)